Regional Weather Roundup
Issued by NWS Burlington, VT

Home | Current Version | Previous Version | Text Only | Print | Product List | Glossary On
Versions: 1 2 3 4 5 6 7 8 9 10 11 12 13 14 15 16 17 18 19 20 21 22 23 24 25 26 27 28 29 30 31 32 33 34 35 36 37 38 39 40 41 42 43 44 45 46 47 48 49 50
000
ASUS41 KBTV 190210
RWRBTV
VERMONT REGIONAL WEATHER ROUNDUP
NATIONAL WEATHER SERVICE BURLINGTON VT
1000 PM EDT FRI APR 18 2014

NOTE: "FAIR" INDICATES FEW OR NO CLOUDS BELOW 12,000 FEET WITH NO
SIGNIFICANT WEATHER AND/OR OBSTRUCTIONS TO VISIBILITY.

* THESE REPORTS ARE NOT UNDER NWS QUALITY CONTROL AND/OR DO NOT
  REPORT WEATHER SUCH AS PRECIPITATION AND FOG.

VTZ001>019-190300-
_____VERMONT_____


CITY           SKY/WX    TMP DP  RH WIND       PRES   REMARKS
BURLINGTON     CLOUDY    47  25  42 S10       30.18S
MONTPELIER     PTCLDY    38  23  55 S5        30.23S
MORRISVILLE    CLOUDY    38  24  57 S5        30.18F
ST. JOHNSBURY*   N/A     39  24  55 MISG      30.19S
LYNDONVILLE*   FAIR      40  21  48 S8        30.20S
MIDDLEBURY*    CLOUDY    46  27  48 E3        30.21S
RUTLAND*       CLEAR     39  25  56 SE9       30.21S
SPRINGFIELD    PTCLDY    36  29  75 CALM      30.23F
HIGHGATE*      CLOUDY    51  23  33 S6        30.16F
NEWPORT*       CLOUDY    42  23  47 SE5       30.17F
BENNINGTON     MOCLDY    41  22  46 CALM      30.22S
SUTTON*          N/A     36 N/A N/A MISG        N/A

_____LAKE CHAMPLAIN_____


CITY           SKY/WX    TMP DP  RH WIND       PRES   REMARKS
COLCHESTER RF*   N/A     41  32  70 S14         N/A
DIAMOND ISL*     N/A     46  27  46 S17         N/A

$$

NYZ007-026>031-035-052-083-190300-
_____NORTHERN NEW YORK_____


CITY           SKY/WX    TMP DP  RH WIND       PRES   REMARKS
PLATTSBURGH    CLOUDY    41  25  53 CALM      30.16F
SARANAC LAKE   LGT RAIN  42  36  79 W5        30.16R
MASSENA        LGT RAIN  44  42  93 SW6       30.20R
OGDENSBURG*    DRIZZLE   45  41  87 NW3       30.19S
POTSDAM*       CLOUDY    43  43 100 CALM      30.18F
WATERTOWN      CLOUDY    43  37  79 SW6       30.21S
FT DRUM        MOCLDY    44  44  98 W5        30.19S
ALBANY         MOCLDY    45  25  45 S6        30.24R
GLENS FALLS    PTCLDY    44  26  49 CALM      30.22S

$$
NHZ002-005-011-190300-
_____NEW HAMPSHIRE_____


CITY           SKY/WX    TMP DP  RH WIND       PRES   REMARKS
LEBANON        PTCLDY    35  26  69 CALM      30.22S
KEENE          CLOUDY    37  27  65 CALM      30.25F
MT WASHINGTON  PTCLDY    25   5  42 NW41G48     N/A  WCI   5
PLYMOUTH         N/A     33  29  85 CALM      30.24F
WHITEFIELD     CLEAR     30  22  72 CALM      30.19F

$$

_____REGIONAL QUEBEC LOCATIONS_____


CITY           SKY/WX    TMP DP  RH WIND       PRES   REMARKS
MONTREAL       CLOUDY    46  27  46 NW6       30.16S
QUEBEC CITY    CLOUDY    41  25  52 NW5       30.15F
SHERBROOKE     CLOUDY    43  21  42 S5        30.16S

_____REGIONAL ONTARIO LOCATIONS_____


CITY           SKY/WX    TMP DP  RH WIND       PRES   REMARKS
OTTAWA         MOCLDY    39  37  93 SW5       30.18S

______KEY______
VSB  - VISIBILITY IN MILES
WCI  - WIND CHILL INDEX
HX   - HEAT INDEX
$$
NNNN



USA.gov is the U.S. government's official web portal to all federal, state and local government web resources and services.